User: anonymous   Login
Location: Unspecified
(0.0000°N, 0.0000°E)
Time: 06:09:18
(UTC+00:00)
Language:

USA 268 - Orbit

View from above orbital plane
View from above orbital plane
View from above satellite
View from above satellite

Ground track
Ground track

The orbit data is extracted from the following two-line orbital elements,

1 41584U 16036A   17282.63578318 0.00000000  00000-0  00000-0 0    02
2 41584   7.2673 352.3290 0045805  48.7234 311.6927  1.00270000    02
Epoch (UTC): 09 October 2017 15:15:31
Eccentricity: 0.0045805
inclination: 7.2673°
perigee height: 35593 km
apogee height: 35980 km
right ascension of ascending node: 352.3290°
argument of perigee: 48.7234°
revolutions per day: 1.00270000
mean anomaly at epoch: 311.6927°
orbit number at epoch: 0

The dashed part of the orbit path shows where the satellite is in the earth's shadow,  

DLR